Retour au catalogue

SL-3 R/B

ActifPO
NORAD 5732·ROCKET BODY·🇷🇺 Russia

Lancé Dec 29, 1971 depuis Plesetsk Cosmodrome

Loading…

Prochains Passages (prochaines 24 heures)

TLE

FraisSource: Space-Track

Époque: Sep 14, 2026, 12:55 UTC

1 05732U 71120B   26257.53824869  .00000159  00000-0  88296-4 0  9997
2 05732  81.2487 100.9014 0050584 268.1181  91.4194 14.06443945805262

Suivez SL-3 R/B en temps réel avec AllMySat

Download on the App Store